Date String (YYYY-MM-DD hh:mm:ss) UTC,Instrument flags,Ambient pressure (hPa),Sample flow (lpm),Bypass flow (lpm),Sample temperature (°C),Ambient temperature (°C),ASC tube jacket temperature (°C),LED temperature (°C),Box temperature (°C),Sample RH (%),Span deviation,Mass concentration (μg/m³),Mass concentration (μg/m³),Mass concentration (μg/m³)
DateTimeUTC,F1_M11,P_M11,Q1_M11,Q2_M11,T1_M11,T2_M11,T3_M11,T4_M11,T5_M11,U1_M11,ZSPAN_M11,X0_M11,X2_M11,X1_M11
2023-05-11 09:00:00,,0824.7,5.01,0.00,25.2,23.4,00.0,33.7,26.8,30.7,0000.0,0006.68,0003.70,0002.98
2023-05-11 09:01:00,,0824.6,5.00,0.00,25.2,23.3,00.0,33.7,26.8,30.5,0000.0,0006.36,0003.58,0002.82
2023-05-11 09:02:00,,0824.5,5.00,0.00,25.1,23.3,00.0,33.6,26.7,30.5,0000.0,0006.20,0003.51,0002.70
2023-05-11 09:03:00,,0824.4,5.00,0.00,25.1,23.3,00.0,33.6,26.7,30.7,0000.0,0006.09,0003.44,0002.59
2023-05-11 09:04:00,,0824.4,4.99,0.00,25.1,23.2,00.0,33.6,26.7,30.7,0000.0,0005.77,0003.34,0002.46
2023-05-11 09:05:00,,0824.5,5.00,0.00,25.1,23.2,00.0,33.6,26.7,30.6,0000.0,0005.31,0003.18,0002.28
2023-05-11 09:06:00,,0824.5,5.00,0.00,25.0,23.1,00.0,33.6,26.7,30.6,0000.0,0004.89,0002.98,0002.09
2023-05-11 09:07:00,,0824.6,5.00,0.00,25.0,23.1,00.0,33.6,26.7,30.7,0000.0,0004.52,0002.75,0001.93
2023-05-11 09:08:00,,0824.5,5.01,0.00,25.0,23.1,00.0,33.6,26.6,30.6,0000.0,0004.40,0002.63,0001.81
2023-05-11 09:09:00,,0824.6,5.01,0.00,25.0,23.1,00.0,33.6,26.6,30.5,0000.0,0004.18,0002.46,0001.67
2023-05-11 09:10:00,,0824.6,5.00,0.00,25.0,23.1,00.0,33.5,26.6,30.4,0000.0,0004.11,0002.36,0001.57
2023-05-11 09:11:00,,0824.7,5.00,0.00,25.0,23.1,00.0,33.5,26.6,30.3,0000.0,0004.06,0002.30,0001.52
2023-05-11 09:12:00,,0824.7,5.00,0.00,25.0,23.2,00.0,33.5,26.6,30.3,0000.0,0003.89,0002.23,0001.47
2023-05-11 09:13:00,,0824.7,5.00,0.00,25.0,23.2,00.0,33.5,26.6,30.0,0000.0,0004.91,0002.12,0001.42
2023-05-11 09:14:00,,0824.7,5.00,0.00,25.0,23.1,00.0,33.5,26.6,29.7,0000.0,0005.55,0002.02,0001.37
2023-05-11 09:15:00,,0824.5,5.00,0.00,25.0,23.1,00.0,33.5,26.6,29.7,0000.0,0005.38,0001.93,0001.32
2023-05-11 09:16:00,,0824.5,5.01,0.00,25.0,23.1,00.0,33.5,26.6,29.6,0000.0,0005.45,0001.87,0001.27
2023-05-11 09:17:00,,0824.6,5.00,0.00,24.9,23.1,00.0,33.5,26.6,29.7,0000.0,0005.57,0001.85,0001.23
2023-05-11 09:18:00,,0824.6,5.01,0.00,24.9,23.1,00.0,33.5,26.6,29.8,0000.0,0005.52,0001.79,0001.18
2023-05-11 09:19:00,,0824.7,4.99,0.00,25.0,23.1,00.0,33.4,26.6,29.6,0000.0,0005.38,0001.71,0001.14
2023-05-11 09:20:00,,0824.7,5.00,0.00,25.0,23.2,00.0,33.4,26.6,29.3,0000.0,0005.30,0001.64,0001.10
2023-05-11 09:21:00,,0824.6,5.00,0.00,25.0,23.2,00.0,33.4,26.7,29.2,0000.0,0005.10,0001.56,0001.07
2023-05-11 09:22:00,,0824.6,5.00,0.00,25.0,23.2,00.0,33.4,26.7,29.1,0000.0,0005.63,0001.53,0001.04
2023-05-11 09:23:00,,0824.5,5.00,0.00,25.0,23.3,00.0,33.4,26.7,29.0,0000.0,0005.80,0001.53,0001.01
2023-05-11 09:24:00,,0824.5,5.00,0.00,25.0,23.3,00.0,33.4,26.7,28.9,0000.0,0005.51,0001.57,0000.98
2023-05-11 09:25:00,,0824.4,5.00,0.00,25.0,23.3,00.0,33.4,26.7,28.7,0000.0,0003.96,0001.56,0000.96
2023-05-11 09:26:00,,0824.4,5.01,0.00,25.0,23.3,00.0,33.4,26.6,28.5,0000.0,0004.92,0001.58,0000.94
2023-05-11 09:27:00,,0824.5,5.00,0.00,25.0,23.3,00.0,33.4,26.6,28.6,0000.0,0004.90,0001.57,0000.91
2023-05-11 09:28:00,,0824.6,5.00,0.00,25.0,23.2,00.0,33.4,26.6,28.5,0000.0,0004.77,0001.55,0000.88
2023-05-11 09:29:00,,0824.7,5.00,0.00,24.9,23.2,00.0,33.4,26.6,28.5,0000.0,0004.82,0001.54,0000.85
2023-05-11 09:30:00,,0824.7,5.00,0.00,24.9,23.2,00.0,33.4,26.6,28.5,0000.0,0004.74,0001.52,0000.82
2023-05-11 09:31:00,,0824.8,5.00,0.00,24.9,23.2,00.0,33.4,26.6,28.4,0000.0,0004.77,0001.51,0000.80
2023-05-11 09:32:00,,0824.8,5.01,0.00,24.9,23.2,00.0,33.4,26.6,28.2,0000.0,0004.81,0001.53,0000.78
2023-05-11 09:33:00,,0824.9,5.01,0.00,24.9,23.2,00.0,33.4,26.6,28.0,0000.0,0004.37,0001.56,0000.77
2023-05-11 09:34:00,,0824.9,5.00,0.00,24.9,23.1,00.0,33.4,26.6,27.8,0000.0,0004.05,0001.51,0000.75
2023-05-11 09:35:00,,0824.9,4.99,0.00,24.9,23.1,00.0,33.4,26.6,27.9,0000.0,0003.87,0001.45,0000.74
2023-05-11 09:36:00,,0824.9,4.99,0.00,24.9,23.1,00.0,33.4,26.5,28.0,0000.0,0003.78,0001.41,0000.72
2023-05-11 09:37:00,,0824.9,5.00,0.00,24.9,23.1,00.0,33.4,26.5,28.0,0000.0,0002.87,0001.39,0000.71
2023-05-11 09:38:00,,0824.9,5.00,0.00,24.9,23.1,00.0,33.4,26.5,27.9,0000.0,0002.91,0001.40,0000.71
2023-05-11 09:39:00,,0824.9,5.00,0.00,24.9,23.1,00.0,33.4,26.5,27.8,0000.0,0002.78,0001.36,0000.70
2023-05-11 09:40:00,,0824.9,5.00,0.00,24.8,23.1,00.0,33.4,26.5,27.8,0000.0,0002.64,0001.32,0000.69
2023-05-11 09:41:00,,0824.9,4.99,0.00,24.8,23.1,00.0,33.4,26.5,27.8,0000.0,0002.62,0001.31,0000.70
2023-05-11 09:42:00,,0824.9,4.99,0.00,24.8,23.1,00.0,33.3,26.5,27.8,0000.0,0002.55,0001.32,0000.69
2023-05-11 09:43:00,,0824.9,5.00,0.00,24.8,23.0,00.0,33.3,26.4,27.8,0000.0,0002.47,0001.28,0000.69
2023-05-11 09:44:00,,0824.9,5.00,0.00,24.8,23.0,00.0,33.3,26.4,27.9,0000.0,0002.43,0001.25,0000.68
2023-05-11 09:45:00,,0824.8,5.00,0.00,24.8,23.0,00.0,33.3,26.5,27.9,0000.0,0002.37,0001.24,0000.69
2023-05-11 09:46:00,,0824.8,5.00,0.00,24.8,23.0,00.0,33.3,26.5,27.7,0000.0,0002.34,0001.21,0000.68
2023-05-11 09:47:00,,0824.8,5.00,0.00,24.8,23.0,00.0,33.3,26.5,27.7,0000.0,0002.42,0001.21,0000.67
2023-05-11 09:48:00,,0824.7,5.01,0.00,24.8,23.0,00.0,33.3,26.5,27.6,0000.0,0002.40,0001.20,0000.67
2023-05-11 09:49:00,,0824.8,5.01,0.00,24.8,23.0,00.0,33.3,26.5,27.5,0000.0,0002.18,0001.13,0000.66
2023-05-11 09:50:00,,0824.8,5.00,0.00,24.8,23.1,00.0,33.3,26.6,27.7,0000.0,0002.15,0001.10,0000.65
2023-05-11 09:51:00,,0824.9,5.01,0.00,24.8,23.2,00.0,33.3,26.6,27.8,0000.0,0002.20,0001.12,0000.65
2023-05-11 09:52:00,,0824.9,5.00,0.00,24.9,23.3,00.0,33.3,26.6,27.6,0000.0,0002.67,0001.16,0000.66
2023-05-11 09:53:00,,0824.9,4.99,0.00,24.9,23.3,00.0,33.3,26.7,27.4,0000.0,0002.84,0001.11,0000.66
2023-05-11 09:54:00,,0824.8,4.99,0.00,24.9,23.4,00.0,33.3,26.7,27.3,0000.0,0002.78,0001.09,0000.66
2023-05-11 09:55:00,,0824.8,4.99,0.00,24.9,23.4,00.0,33.3,26.7,27.3,0000.0,0002.79,0001.11,0000.67
2023-05-11 09:56:00,,0824.8,5.01,0.00,24.9,23.5,00.0,33.3,26.7,27.1,0000.0,0002.90,0001.15,0000.68
2023-05-11 09:57:00,,0824.9,5.01,0.00,25.0,23.5,00.0,33.3,26.7,26.9,0000.0,0003.03,0001.17,0000.68
2023-05-11 09:58:00,,0824.8,4.99,0.00,25.0,23.4,00.0,33.3,26.7,26.9,0000.0,0002.95,0001.15,0000.68
2023-05-11 09:59:00,,0824.9,4.99,0.00,25.0,23.3,00.0,33.3,26.7,26.9,0000.0,0002.81,0001.12,0000.68
